Torna al catalogo

STARLINK-34018

AttivoComunicazioniVLEO
NORAD 63836·PAYLOAD·🇺🇸 United States

Lanciato May 7, 2025 da Cape Canaveral Space Force Station

Loading…

Prossimi Passaggi (prossime 24 ore)

TLE

AggiornatoSource: CelesTrak SupGP

Epoca: Sep 14, 2026, 21:04 UTC

1 63836C 25093A   26257.87826389 -.00002182  00000+0 -79058-4 0  2572
2 63836  43.0017  89.5985 0001633 272.2827 123.2117 15.27573173    19

Traccia STARLINK-34018 in tempo reale con AllMySat

Download on the App Store